M I D A S
Marine Information and Data Acquisition System
Tripno 371 of the Zeeleeuw from 2002-12-17 07:58:17 to 2002-12-17 15:40:07
Back to CruiseResearch ActivitiesStationsMapUnderway DataData graphs

EquipmentUnitsComments
TimeDGPSUTC
LatitudeDGPSDM.mWGS84
LongitudeDGPSDM.mWGS84
SpeedMeteo Stationm/sRelative wind speed
DirectionMeteo StationdegRelative wind direction
TemperatureMeteo Stationdeg CelciusAir temperature
PressureMeteo StationPaAtmospheric pressure
HumidityMeteo Station%Relative humidity
Missing or incorrect values are displayed as -999
Metereological data collected by the RV Zeeleeuw from 2002-12-17 07:58:17 to 2002-12-17 15:40:07
                                                                                    Next 1000 lines
Time Latitude Longitude Speed Direction Temperature Pressure Humidity
2002-12-17 07:58:25 51°13.582 2°56.131 0.9 278 5.1 102160 92
2002-12-17 07:58:31 51°13.582 2°56.131 1.5 277 5.1 102160 92
2002-12-17 07:58:37 51°13.582 2°56.131 1.6 266 5.1 102160 92
2002-12-17 07:58:41 51°13.582 2°56.131 0.8 278 5.1 102160 92
2002-12-17 07:58:45 51°13.582 2°56.131 1.4 279 5.1 102160 92
2002-12-17 07:58:50 51°13.582 2°56.13 1.1 283 5.1 102160 92
2002-12-17 07:58:55 51°13.583 2°56.129 1.1 297 5.1 102160 92
2002-12-17 07:59:01 51°13.584 2°56.126 1 300 5.1 102160 92
2002-12-17 07:59:05 51°13.585 2°56.123 0.6 338 5.1 102160 92
2002-12-17 07:59:11 51°13.587 2°56.118 0.4 341 5.1 102160 92
2002-12-17 07:59:17 51°13.589 2°56.112 0.9 321 5.1 102160 92
2002-12-17 07:59:21 51°13.591 2°56.107 0.6 332 5.1 102160 92
2002-12-17 07:59:27 51°13.593 2°56.098 0.8 1 5.1 102160 92
2002-12-17 07:59:33 51°13.597 2°56.089 1.1 18 5.1 102160 92
2002-12-17 07:59:37 51°13.6 2°56.082 2.1 28 5.1 102160 92
2002-12-17 07:59:42 51°13.603 2°56.072 2.1 20 5.1 102160 92
2002-12-17 07:59:47 51°13.607 2°56.062 2 21 5.1 102160 92
2002-12-17 07:59:52 51°13.611 2°56.051 2 15 5.1 102160 92
2002-12-17 07:59:57 51°13.614 2°56.04 2 15 5.1 102160 92
2002-12-17 08:00:02 51°13.618 2°56.028 2 15 5.1 102160 92
2002-12-17 08:00:07 51°13.622 2°56.015 2.4 26 5.1 102160 92
2002-12-17 08:00:12 51°13.626 2°56.003 2.5 27 5.1 102160 92
2002-12-17 08:00:17 51°13.63 2°55.989 2.7 27 5.1 102170 92
2002-12-17 08:00:22 51°13.634 2°55.975 2.6 27 5.1 102170 92
2002-12-17 08:00:26 51°13.637 2°55.964 2.9 27 5.1 102170 92
2002-12-17 08:00:33 51°13.642 2°55.943 2.6 36 5.1 102170 92
2002-12-17 08:00:37 51°13.645 2°55.931 2.8 28 5.1 102170 92
2002-12-17 08:00:42 51°13.649 2°55.916 2.8 37 5.1 102170 92
2002-12-17 08:00:47 51°13.653 2°55.901 3.1 33 5.1 102170 92
2002-12-17 08:00:53 51°13.657 2°55.883 3.3 41 5.1 102170 92
2002-12-17 08:00:57 51°13.66 2°55.872 2.3 15 5.1 102170 92
2002-12-17 08:01:02 51°13.663 2°55.859 1.8 8 5.1 102170 92
2002-12-17 08:01:05 51°13.665 2°55.85 1.8 10 5.1 102170 92
2002-12-17 08:01:13 51°13.668 2°55.83 1.4 12 5.1 102170 92
2002-12-17 08:01:17 51°13.67 2°55.821 1.3 18 5.1 102160 92
2002-12-17 08:01:22 51°13.672 2°55.809 1.1 13 5.1 102160 92
2002-12-17 08:01:27 51°13.674 2°55.798 1.1 28 5 102170 92
2002-12-17 08:01:30 51°13.674 2°55.792 1.2 27 5 102170 92
2002-12-17 08:01:37 51°13.676 2°55.779 1 3 5 102170 92
2002-12-17 08:01:42 51°13.677 2°55.771 0.5 329 5 102170 92
2002-12-17 08:01:47 51°13.677 2°55.764 0.2 316 5.1 102160 92
2002-12-17 08:01:52 51°13.677 2°55.758 0.1 255 5.1 102160 92
2002-12-17 08:01:54 51°13.677 2°55.756 0.8 188 5 102170 92
2002-12-17 08:02:02 51°13.677 2°55.749 0.7 190 5 102170 92
2002-12-17 08:02:06 51°13.678 2°55.747 1 187 5 102170 92
2002-12-17 08:02:10 51°13.678 2°55.746 1 201 5 102170 92
2002-12-17 08:02:17 51°13.678 2°55.743 1 197 5 102170 92
2002-12-17 08:02:21 51°13.678 2°55.743 0.9 216 5 102170 92
2002-12-17 08:02:25 51°13.679 2°55.742 1.4 229 5 102170 92
2002-12-17 08:02:30 51°13.68 2°55.743 1.4 215 5 102170 92
2002-12-17 08:02:37 51°13.681 2°55.743 2.1 210 5 102170 92
2002-12-17 08:02:42 51°13.683 2°55.744 2.2 199 5 102170 92
2002-12-17 08:02:45 51°13.684 2°55.744 2.2 200 5 102170 92
2002-12-17 08:02:51 51°13.687 2°55.745 2.4 194 5 102170 92
2002-12-17 08:02:57 51°13.69 2°55.746 2.1 193 5 102170 92
2002-12-17 08:03:02 51°13.693 2°55.746 1.7 187 5 102170 92
2002-12-17 08:03:06 51°13.695 2°55.745 1.8 181 5 102160 92
2002-12-17 08:03:11 51°13.699 2°55.744 2.1 173 5 102160 92
2002-12-17 08:03:17 51°13.703 2°55.743 2.4 169 5 102170 92
2002-12-17 08:03:21 51°13.706 2°55.741 2.7 162 5 102170 92
2002-12-17 08:03:27 51°13.711 2°55.738 2.5 163 5 102170 92
2002-12-17 08:03:31 51°13.715 2°55.735 2.4 165 5 102170 92
2002-12-17 08:03:36 51°13.719 2°55.732 2.2 178 5 102160 92
2002-12-17 08:03:41 51°13.725 2°55.728 2 195 5 102160 92
2002-12-17 08:03:46 51°13.73 2°55.723 2.2 192 5 102170 92
2002-12-17 08:03:52 51°13.738 2°55.716 2.4 190 5 102170 92
2002-12-17 08:03:57 51°13.746 2°55.71 2.3 190 5 102160 92
2002-12-17 08:04:01 51°13.752 2°55.705 2.6 197 5 102160 92
2002-12-17 08:04:05 51°13.758 2°55.699 2.9 189 5 102160 92
2002-12-17 08:04:11 51°13.768 2°55.691 3.3 182 5 102160 92
2002-12-17 08:04:17 51°13.779 2°55.682 3.2 203 5 102170 92
2002-12-17 08:04:21 51°13.786 2°55.676 3.5 213 5 102170 92
2002-12-17 08:04:27 51°13.798 2°55.667 3.1 220 5 102170 92
2002-12-17 08:04:31 51°13.806 2°55.661 3.6 222 5 102170 92
2002-12-17 08:04:37 51°13.818 2°55.652 3.6 227 5 102170 92
2002-12-17 08:04:42 51°13.828 2°55.645 3.5 316 5 102170 92
2002-12-17 08:04:47 51°13.838 2°55.637 4.6 319 5 102170 92
2002-12-17 08:04:50 51°13.844 2°55.633 4.2 217 5 102170 92
2002-12-17 08:04:57 51°13.857 2°55.621 4.6 223 5 102160 92
2002-12-17 08:05:01 51°13.866 2°55.614 4.9 214 5 102160 92
2002-12-17 08:05:06 51°13.876 2°55.605 4.9 208 5 102170 92
2002-12-17 08:05:11 51°13.887 2°55.597 4.3 216 5 102170 92
2002-12-17 08:05:17 51°13.9 2°55.587 5 215 5 102160 92
2002-12-17 08:05:22 51°13.911 2°55.58 4.9 209 5 102160 92
2002-12-17 08:05:25 51°13.918 2°55.575 4.9 212 5 102160 92
2002-12-17 08:05:31 51°13.931 2°55.565 5.3 209 5 102160 92
2002-12-17 08:05:37 51°13.945 2°55.555 5.1 204 5 102160 92
2002-12-17 08:05:42 51°13.956 2°55.547 5 206 5 102160 92
2002-12-17 08:05:47 51°13.967 2°55.539 4.5 202 5 102160 92
2002-12-17 08:05:52 51°13.978 2°55.53 4.2 205 5 102160 92
2002-12-17 08:05:57 51°13.989 2°55.522 4.1 196 5 102160 92
2002-12-17 08:06:02 51°14 2°55.514 4.1 194 5 102160 92
2002-12-17 08:06:06 51°14.009 2°55.507 4.3 209 5 102160 92
2002-12-17 08:06:11 51°14.02 2°55.499 4.2 216 5 102160 92
2002-12-17 08:06:17 51°14.034 2°55.489 4 220 5 102160 92
2002-12-17 08:06:22 51°14.046 2°55.48 4.5 219 5 102160 92
2002-12-17 08:06:26 51°14.055 2°55.473 4.5 218 4.9 102160 92
2002-12-17 08:06:32 51°14.069 2°55.462 4.8 219 4.9 102160 92
2002-12-17 08:06:37 51°14.081 2°55.452 4.9 219 5 102160 92
2002-12-17 08:06:42 51°14.095 2°55.441 6.2 219 5 102160 92
2002-12-17 08:06:45 51°14.103 2°55.434 5.8 218 4.9 102160 92
2002-12-17 08:06:51 51°14.12 2°55.419 6.2 213 4.9 102160 92
2002-12-17 08:06:57 51°14.137 2°55.404 6.1 216 5 102160 92
2002-12-17 08:07:02 51°14.152 2°55.39 6.3 209 5 102160 92
2002-12-17 08:07:06 51°14.164 2°55.379 6.4 219 5 102160 92
2002-12-17 08:07:12 51°14.181 2°55.36 6.2 217 5 102160 92
2002-12-17 08:07:17 51°14.196 2°55.344 6.1 220 5 102160 92
2002-12-17 08:07:22 51°14.21 2°55.326 5.6 214 5 102160 92
2002-12-17 08:07:27 51°14.223 2°55.309 6 216 5 102170 92
2002-12-17 08:07:29 51°14.228 2°55.302 5.6 211 5 102170 92
2002-12-17 08:07:37 51°14.249 2°55.272 6.1 222 5 102160 92
2002-12-17 08:07:41 51°14.259 2°55.255 6.2 221 5 102160 92
2002-12-17 08:07:45 51°14.269 2°55.239 6.2 218 5 102160 92
2002-12-17 08:07:51 51°14.283 2°55.214 5.2 212 5 102160 92
2002-12-17 08:07:57 51°14.297 2°55.188 5.5 214 5 102160 92
2002-12-17 08:08:02 51°14.308 2°55.166 5.6 216 5 102160 92
2002-12-17 08:08:06 51°14.317 2°55.149 6 221 5 102160 92
2002-12-17 08:08:11 51°14.328 2°55.126 5.7 218 5 102160 92
2002-12-17 08:08:17 51°14.342 2°55.1 5.7 220 5 102170 92
2002-12-17 08:08:21 51°14.351 2°55.082 6.2 134 5 102170 92
2002-12-17 08:08:27 51°14.364 2°55.055 5.7 223 5 102160 92
2002-12-17 08:08:31 51°14.373 2°55.037 6.2 221 5 102160 92
2002-12-17 08:08:37 51°14.387 2°55.01 6.4 226 5 102170 92
2002-12-17 08:08:42 51°14.4 2°54.989 6 217 5 102170 92
2002-12-17 08:08:46 51°14.41 2°54.975 5.9 211 5 102160 92
2002-12-17 08:08:52 51°14.428 2°54.953 6.2 210 5 102160 92
2002-12-17 08:08:57 51°14.443 2°54.936 6.3 213 5 102160 92
2002-12-17 08:09:02 51°14.46 2°54.919 6.9 211 5 102160 92
2002-12-17 08:09:06 51°14.472 2°54.907 6.4 211 5 102170 92
2002-12-17 08:09:10 51°14.485 2°54.895 6.1 206 5 102170 92
2002-12-17 08:09:15 51°14.501 2°54.88 6.4 212 5 102160 92
2002-12-17 08:09:21 51°14.52 2°54.862 6.3 208 5 102160 92
2002-12-17 08:09:27 51°14.539 2°54.844 6.3 210 5 102170 92
2002-12-17 08:09:31 51°14.551 2°54.832 6.5 217 5 102170 92
2002-12-17 08:09:37 51°14.569 2°54.813 7.2 207 5 102170 92
2002-12-17 08:09:42 51°14.585 2°54.797 6.6 205 5 102170 92
2002-12-17 08:09:46 51°14.598 2°54.783 6.3 212 5 102170 92
2002-12-17 08:09:52 51°14.618 2°54.763 6.2 212 5 102170 92
2002-12-17 08:09:57 51°14.634 2°54.746 7.3 208 4.9 102170 92
2002-12-17 08:10:02 51°14.65 2°54.729 6.1 208 4.9 102170 92
2002-12-17 08:10:06 51°14.662 2°54.715 6.8 208 4.9 102160 92
2002-12-17 08:10:10 51°14.675 2°54.702 7.3 208 4.9 102160 92
2002-12-17 08:10:17 51°14.697 2°54.678 6.7 204 4.9 102170 92
2002-12-17 08:10:21 51°14.71 2°54.664 6.8 205 4.9 102170 92
2002-12-17 08:10:27 51°14.728 2°54.644 6.5 206 4.9 102170 92
2002-12-17 08:10:31 51°14.741 2°54.631 6.1 206 4.9 102170 92
2002-12-17 08:10:37 51°14.76 2°54.611 6.3 208 4.9 102160 92
2002-12-17 08:10:41 51°14.773 2°54.597 6.1 208 4.9 102160 92
2002-12-17 08:10:47 51°14.792 2°54.576 6.8 207 4.9 102170 92
2002-12-17 08:10:52 51°14.809 2°54.56 6.9 213 4.9 102170 92
2002-12-17 08:10:57 51°14.826 2°54.543 6.7 208 4.9 102160 92
2002-12-17 08:11:02 51°14.842 2°54.527 6.3 208 4.9 102160 92
2002-12-17 08:11:06 51°14.855 2°54.514 6.1 209 4.9 102170 92
2002-12-17 08:11:11 51°14.871 2°54.498 6.4 207 4.9 102170 92
2002-12-17 08:11:17 51°14.891 2°54.478 6.4 203 4.9 102170 92
2002-12-17 08:11:22 51°14.907 2°54.461 6.3 203 4.9 102170 92
2002-12-17 08:11:26 51°14.92 2°54.448 6.5 209 4.9 102170 92
2002-12-17 08:11:32 51°14.939 2°54.428 6.2 207 4.9 102170 92
2002-12-17 08:11:37 51°14.954 2°54.411 6.4 205 4.9 102170 92
2002-12-17 08:11:42 51°14.97 2°54.395 6.4 208 4.9 102170 92
2002-12-17 08:11:46 51°14.983 2°54.382 6.5 210 4.9 102170 92
2002-12-17 08:11:50 51°14.996 2°54.369 6.4 206 4.9 102170 92
2002-12-17 08:11:57 51°15.017 2°54.346 6 210 4.9 102170 92
2002-12-17 08:12:01 51°15.03 2°54.333 6.5 203 4.9 102170 92
2002-12-17 08:12:06 51°15.046 2°54.316 6.3 209 4.9 102170 92
2002-12-17 08:12:11 51°15.062 2°54.299 6.7 207 4.9 102170 92
2002-12-17 08:12:17 51°15.081 2°54.28 6.1 207 4.9 102170 92
2002-12-17 08:12:21 51°15.093 2°54.267 6.7 209 4.9 102170 92
2002-12-17 08:12:26 51°15.109 2°54.251 6.5 207 4.9 102170 92
2002-12-17 08:12:31 51°15.126 2°54.234 6.7 213 4.9 102170 92
2002-12-17 08:12:37 51°15.145 2°54.215 7.2 213 4.9 102190 92
2002-12-17 08:12:42 51°15.162 2°54.199 6.9 210 4.9 102190 92
2002-12-17 08:12:46 51°15.175 2°54.186 6.2 208 4.9 102180 92
2002-12-17 08:12:51 51°15.192 2°54.17 6.6 211 4.9 102180 92
2002-12-17 08:12:55 51°15.205 2°54.158 6.4 212 4.9 102190 92
2002-12-17 08:13:01 51°15.225 2°54.139 6.9 208 4.9 102190 92
2002-12-17 08:13:06 51°15.241 2°54.123 6.7 209 4.9 102190 92
2002-12-17 08:13:11 51°15.258 2°54.107 7.1 210 4.9 102190 92
2002-12-17 08:13:17 51°15.277 2°54.088 7 209 4.9 102190 92
2002-12-17 08:13:22 51°15.293 2°54.071 7.4 215 4.9 102190 92
2002-12-17 08:13:26 51°15.306 2°54.058 6.2 210 4.9 102190 92
2002-12-17 08:13:32 51°15.324 2°54.039 6.4 208 4.9 102190 92
2002-12-17 08:13:37 51°15.34 2°54.022 6.7 212 4.9 102180 92
2002-12-17 08:13:41 51°15.353 2°54.009 6.3 212 4.9 102180 92
2002-12-17 08:13:47 51°15.373 2°53.989 6.2 207 4.9 102180 92
2002-12-17 08:13:51 51°15.386 2°53.976 6.1 208 4.9 102180 92
2002-12-17 08:13:57 51°15.405 2°53.956 6.3 212 4.9 102180 92
2002-12-17 08:14:02 51°15.422 2°53.939 6.7 212 4.9 102180 92
2002-12-17 08:14:06 51°15.434 2°53.926 6.7 215 4.9 102180 92
2002-12-17 08:14:12 51°15.454 2°53.906 6.1 212 4.9 102180 92
2002-12-17 08:14:17 51°15.47 2°53.89 6.4 210 4.9 102180 92
2002-12-17 08:14:22 51°15.486 2°53.874 6.3 216 4.9 102180 92
2002-12-17 08:14:26 51°15.499 2°53.861 6.3 216 4.9 102180 92
2002-12-17 08:14:30 51°15.512 2°53.847 6.2 210 4.9 102180 92
2002-12-17 08:14:37 51°15.534 2°53.823 5.5 214 4.9 102180 92
2002-12-17 08:14:41 51°15.547 2°53.81 6.2 217 4.9 102180 92
2002-12-17 08:14:47 51°15.566 2°53.79 6 209 4.9 102180 92
2002-12-17 08:14:51 51°15.579 2°53.776 6 211 4.9 102180 92
2002-12-17 08:14:57 51°15.598 2°53.756 5.6 211 4.9 102180 92
2002-12-17 08:15:02 51°15.614 2°53.74 6.1 216 4.9 102180 92
2002-12-17 08:15:06 51°15.626 2°53.727 5.9 212 4.9 102180 92
2002-12-17 08:15:12 51°15.645 2°53.707 6.1 213 4.9 102180 92
2002-12-17 08:15:17 51°15.662 2°53.691 5.9 214 4.9 102180 92
2002-12-17 08:15:22 51°15.678 2°53.675 6.1 212 4.9 102180 92
2002-12-17 08:15:27 51°15.695 2°53.66 6.3 215 4.9 102180 92
2002-12-17 08:15:30 51°15.705 2°53.65 6.4 211 4.9 102180 92
2002-12-17 08:15:37 51°15.728 2°53.629 6.1 211 4.9 102180 92
2002-12-17 08:15:41 51°15.741 2°53.617 6 209 4.9 102180 92
2002-12-17 08:15:47 51°15.761 2°53.601 6 212 4.9 102180 92
2002-12-17 08:15:51 51°15.776 2°53.589 7.1 209 4.9 102180 92
2002-12-17 08:15:57 51°15.796 2°53.573 6.9 211 4.9 102180 92
2002-12-17 08:16:02 51°15.813 2°53.559 6.5 206 4.9 102180 92
2002-12-17 08:16:06 51°15.826 2°53.547 6.5 202 4.9 102180 92
2002-12-17 08:16:12 51°15.846 2°53.53 5.8 197 4.9 102180 92
2002-12-17 08:16:17 51°15.863 2°53.515 5.1 203 4.9 102170 92
2002-12-17 08:16:22 51°15.88 2°53.5 6.2 208 4.9 102170 92
2002-12-17 08:16:26 51°15.894 2°53.489 6.5 207 4.9 102180 92
2002-12-17 08:16:32 51°15.914 2°53.471 6.6 207 4.9 102180 92
2002-12-17 08:16:37 51°15.931 2°53.456 6.5 207 4.9 102170 92
2002-12-17 08:16:42 51°15.947 2°53.442 6.4 209 4.9 102170 92
2002-12-17 08:16:45 51°15.957 2°53.433 6.6 208 4.9 102170 92
2002-12-17 08:16:51 51°15.978 2°53.415 6.1 208 4.9 102170 92
2002-12-17 08:16:57 51°15.998 2°53.398 5.9 207 4.9 102170 92
2002-12-17 08:17:02 51°16.014 2°53.384 6.2 204 4.9 102170 92
2002-12-17 08:17:06 51°16.028 2°53.372 6.5 214 4.9 102180 92
2002-12-17 08:17:11 51°16.045 2°53.357 6 210 4.9 102180 92
2002-12-17 08:17:14 51°16.055 2°53.348 6 209 4.9 102180 92
2002-12-17 08:17:22 51°16.082 2°53.325 6.5 211 4.9 102180 92
2002-12-17 08:17:26 51°16.095 2°53.315 6.8 212 4.9 102180 92
2002-12-17 08:17:32 51°16.116 2°53.298 6.1 206 4.9 102180 92
2002-12-17 08:17:37 51°16.132 2°53.285 6 210 4.9 102180 92
2002-12-17 08:17:42 51°16.149 2°53.271 5.9 209 4.9 102180 92
2002-12-17 08:17:46 51°16.162 2°53.261 6.2 212 4.9 102180 92
2002-12-17 08:17:52 51°16.182 2°53.244 7 208 4.9 102180 92
2002-12-17 08:17:57 51°16.198 2°53.23 6.8 208 4.9 102180 92
2002-12-17 08:18:02 51°16.215 2°53.217 6.4 212 4.9 102180 92
2002-12-17 08:18:06 51°16.228 2°53.206 6.1 212 4.9 102180 91
2002-12-17 08:18:11 51°16.245 2°53.193 5.9 206 4.9 102180 91
2002-12-17 08:18:17 51°16.265 2°53.176 6.1 210 4.9 102180 92
2002-12-17 08:18:21 51°16.278 2°53.166 6.3 207 4.9 102180 92
2002-12-17 08:18:27 51°16.298 2°53.149 7.1 208 4.9 102180 92
2002-12-17 08:18:31 51°16.311 2°53.138 6.3 206 4.9 102180 92
2002-12-17 08:18:37 51°16.331 2°53.121 5.9 205 4.9 102180 91
2002-12-17 08:18:42 51°16.347 2°53.107 6.5 209 4.9 102180 91
2002-12-17 08:18:46 51°16.361 2°53.095 5.9 209 5 102180 91
2002-12-17 08:18:52 51°16.38 2°53.078 6.7 210 5 102180 91
2002-12-17 08:18:57 51°16.397 2°53.065 6.1 206 4.9 102180 91
2002-12-17 08:19:01 51°16.41 2°53.054 6.2 208 4.9 102180 91
2002-12-17 08:19:06 51°16.427 2°53.04 6 206 5 102180 91
2002-12-17 08:19:11 51°16.443 2°53.026 6.1 210 5 102180 91
2002-12-17 08:19:17 51°16.463 2°53.01 6 203 4.9 102180 91
2002-12-17 08:19:21 51°16.476 2°52.999 5.8 205 4.9 102180 91
2002-12-17 08:19:27 51°16.496 2°52.982 5.5 206 4.9 102180 91
2002-12-17 08:19:31 51°16.509 2°52.971 6.5 209 4.9 102180 91
2002-12-17 08:19:37 51°16.529 2°52.954 6.4 207 5 102190 91
2002-12-17 08:19:42 51°16.546 2°52.94 6.7 207 5 102190 91
2002-12-17 08:19:46 51°16.56 2°52.929 6.1 207 4.9 102180 91
2002-12-17 08:19:52 51°16.579 2°52.912 6 205 4.9 102180 91
2002-12-17 08:19:57 51°16.596 2°52.898 5.7 207 4.9 102180 91
2002-12-17 08:20:01 51°16.609 2°52.887 5.5 207 4.9 102180 91
2002-12-17 08:20:05 51°16.622 2°52.875 6.1 212 5 102180 91
2002-12-17 08:20:12 51°16.646 2°52.856 6.2 207 5 102180 91
2002-12-17 08:20:17 51°16.662 2°52.842 6.3 207 5 102180 91
2002-12-17 08:20:22 51°16.678 2°52.828 6.3 209 5 102180 91
2002-12-17 08:20:27 51°16.695 2°52.814 6.6 206 5 102180 91
2002-12-17 08:20:31 51°16.708 2°52.803 6.1 208 5 102180 91
2002-12-17 08:20:37 51°16.728 2°52.786 6.2 204 5 102180 91
2002-12-17 08:20:42 51°16.744 2°52.773 6 207 5 102180 91
2002-12-17 08:20:46 51°16.757 2°52.761 5.8 205 5 102190 91
2002-12-17 08:20:50 51°16.77 2°52.75 6.2 206 5 102190 91
2002-12-17 08:20:57 51°16.793 2°52.731 6.3 204 5 102190 91
2002-12-17 08:21:01 51°16.806 2°52.72 6.3 204 5 102190 91
2002-12-17 08:21:06 51°16.822 2°52.706 6.3 203 5 102190 91
2002-12-17 08:21:11 51°16.838 2°52.693 7 209 5 102190 91
2002-12-17 08:21:17 51°16.857 2°52.676 6.7 203 5 102190 91
2002-12-17 08:21:22 51°16.874 2°52.663 6.6 207 5 102190 91
2002-12-17 08:21:25 51°16.884 2°52.655 6.6 202 5 102190 91
2002-12-17 08:21:31 51°16.903 2°52.638 7.2 204 5 102190 91
2002-12-17 08:21:37 51°16.923 2°52.622 7 202 5 102190 91
2002-12-17 08:21:42 51°16.939 2°52.608 7.2 205 5 102190 91
2002-12-17 08:21:46 51°16.952 2°52.597 7 205 5 102190 91
2002-12-17 08:21:50 51°16.966 2°52.587 7 204 5 102190 91
2002-12-17 08:21:57 51°16.989 2°52.568 7 203 5 102180 91
2002-12-17 08:22:01 51°17.002 2°52.557 6.8 204 5 102180 91
2002-12-17 08:22:05 51°17.015 2°52.546 6.8 205 5 102190 91
2002-12-17 08:22:12 51°17.038 2°52.527 7 205 5 102190 91
2002-12-17 08:22:17 51°17.054 2°52.513 6.6 204 5 102190 91
2002-12-17 08:22:21 51°17.067 2°52.502 6.7 203 5 102190 91
2002-12-17 08:22:27 51°17.087 2°52.485 6.8 203 5 102190 91
2002-12-17 08:22:31 51°17.1 2°52.474 7.5 209 5 102190 91
2002-12-17 08:22:37 51°17.12 2°52.457 6.6 204 4.9 102190 91
2002-12-17 08:22:41 51°17.132 2°52.445 7.4 205 4.9 102190 91
2002-12-17 08:22:47 51°17.151 2°52.428 7.2 203 5 102190 91
2002-12-17 08:22:51 51°17.164 2°52.417 7.1 204 5 102190 91
2002-12-17 08:22:57 51°17.184 2°52.4 6.7 202 4.9 102180 91
2002-12-17 08:23:02 51°17.2 2°52.386 7.4 206 4.9 102180 91
2002-12-17 08:23:06 51°17.213 2°52.375 7.4 204 4.9 102190 91
2002-12-17 08:23:12 51°17.233 2°52.357 6.2 205 4.9 102190 91
2002-12-17 08:23:17 51°17.248 2°52.342 6.7 204 4.9 102190 91
2002-12-17 08:23:22 51°17.264 2°52.327 6.8 201 4.9 102190 91
2002-12-17 08:23:27 51°17.28 2°52.311 6.4 200 4.9 102190 91
2002-12-17 08:23:32 51°17.296 2°52.295 5.6 199 4.9 102190 91
2002-12-17 08:23:37 51°17.311 2°52.279 5.5 201 5 102190 91
2002-12-17 08:23:42 51°17.326 2°52.263 6 202 5 102190 91
2002-12-17 08:23:46 51°17.339 2°52.25 6.3 201 4.9 102190 91
2002-12-17 08:23:50 51°17.351 2°52.236 6.3 201 4.9 102190 91
2002-12-17 08:23:57 51°17.373 2°52.213 6.1 197 4.9 102190 91
2002-12-17 08:24:01 51°17.385 2°52.2 6.1 196 4.9 102190 91
2002-12-17 08:24:06 51°17.4 2°52.184 6.1 199 4.9 102180 91
2002-12-17 08:24:11 51°17.416 2°52.167 6 204 4.9 102180 91
2002-12-17 08:24:17 51°17.434 2°52.147 5.8 196 4.9 102190 91
2002-12-17 08:24:22 51°17.449 2°52.13 6 197 4.9 102190 91
2002-12-17 08:24:26 51°17.461 2°52.115 6.1 199 4.9 102190 91
2002-12-17 08:24:32 51°17.478 2°52.093 5.5 197 4.9 102190 91
2002-12-17 08:24:37 51°17.492 2°52.073 5.2 193 4.9 102190 91
2002-12-17 08:24:41 51°17.503 2°52.057 5.5 195 4.9 102190 91
2002-12-17 08:24:47 51°17.519 2°52.031 5.1 198 4.9 102180 91
2002-12-17 08:24:51 51°17.529 2°52.014 5 202 4.9 102180 91
2002-12-17 08:24:57 51°17.544 2°51.988 4.7 201 4.9 102190 91
2002-12-17 08:25:02 51°17.556 2°51.965 4.9 202 4.9 102190 91
2002-12-17 08:25:06 51°17.566 2°51.947 5.2 203 4.9 102190 91
2002-12-17 08:25:12 51°17.58 2°51.919 5.2 194 4.9 102190 91
2002-12-17 08:25:17 51°17.592 2°51.895 5.2 202 4.9 102190 91
2002-12-17 08:25:22 51°17.604 2°51.872 5.1 206 4.9 102190 91
2002-12-17 08:25:26 51°17.613 2°51.854 5.8 201 4.9 102190 91
2002-12-17 08:25:30 51°17.622 2°51.835 5.3 197 4.9 102190 91
2002-12-17 08:25:37 51°17.637 2°51.801 4.5 193 4.9 102190 91
2002-12-17 08:25:41 51°17.646 2°51.782 4.8 198 4.9 102190 91
2002-12-17 08:25:47 51°17.66 2°51.755 4.8 202 4.9 102200 91
2002-12-17 08:25:51 51°17.669 2°51.736 5.5 199 4.9 102200 91
2002-12-17 08:25:57 51°17.682 2°51.706 5.3 198 4.9 102190 91
2002-12-17 08:26:02 51°17.694 2°51.683 4.8 205 4.9 102190 91
2002-12-17 08:26:06 51°17.702 2°51.664 4.9 195 4.9 102190 91
2002-12-17 08:26:12 51°17.716 2°51.636 4.1 190 4.9 102190 91
2002-12-17 08:26:17 51°17.727 2°51.612 4.2 194 4.9 102190 91
2002-12-17 08:26:22 51°17.739 2°51.589 4.9 198 4.9 102190 91
2002-12-17 08:26:26 51°17.748 2°51.57 5 200 4.9 102200 91
2002-12-17 08:26:30 51°17.757 2°51.551 5.1 202 4.9 102200 91
2002-12-17 08:26:37 51°17.773 2°51.519 4.6 201 4.9 102190 91
2002-12-17 08:26:41 51°17.783 2°51.5 4.8 197 4.9 102190 91
2002-12-17 08:26:47 51°17.797 2°51.472 4.1 197 4.9 102190 91
2002-12-17 08:26:51 51°17.806 2°51.453 4.2 197 4.9 102190 91
2002-12-17 08:26:57 51°17.82 2°51.425 4.4 200 4.9 102190 91
2002-12-17 08:27:01 51°17.829 2°51.406 5.1 207 4.9 102190 91
2002-12-17 08:27:05 51°17.839 2°51.388 4.3 190 4.9 102200 91
2002-12-17 08:27:11 51°17.853 2°51.359 3.9 189 4.9 102200 91
2002-12-17 08:27:17 51°17.868 2°51.331 2.6 198 4.9 102190 91
2002-12-17 08:27:21 51°17.877 2°51.312 4.9 203 4.9 102190 91
2002-12-17 08:27:27 51°17.891 2°51.284 4.6 205 4.9 102190 91
2002-12-17 08:27:31 51°17.9 2°51.265 4.5 203 4.9 102190 91
2002-12-17 08:27:37 51°17.914 2°51.236 4.6 196 4.9 102190 91
2002-12-17 08:27:42 51°17.926 2°51.213 3.8 201 4.9 102190 91
2002-12-17 08:27:46 51°17.936 2°51.194 4.1 200 4.9 102190 91
2002-12-17 08:27:52 51°17.95 2°51.166 3.7 199 4.9 102190 91
2002-12-17 08:27:57 51°17.961 2°51.142 4.3 202 4.9 102200 91
2002-12-17 08:28:02 51°17.973 2°51.119 4.3 200 4.9 102200 91
2002-12-17 08:28:06 51°17.983 2°51.1 4.6 203 4.9 102200 91
2002-12-17 08:28:10 51°17.993 2°51.081 3.9 194 4.9 102200 91
2002-12-17 08:28:17 51°18.009 2°51.048 4.7 204 4.9 102200 91
2002-12-17 08:28:21 51°18.019 2°51.029 4.2 201 4.9 102200 91
2002-12-17 08:28:27 51°18.033 2°51 4.6 205 4.9 102190 91
2002-12-17 08:28:31 51°18.042 2°50.981 4.1 201 4.9 102190 91
2002-12-17 08:28:37 51°18.057 2°50.953 4.6 194 4.9 102200 91
2002-12-17 08:28:42 51°18.068 2°50.929 5 201 4.9 102200 91
2002-12-17 08:28:46 51°18.078 2°50.911 3.7 184 4.9 102190 91
2002-12-17 08:28:52 51°18.093 2°50.883 3.9 196 4.9 102190 91
2002-12-17 08:28:57 51°18.105 2°50.86 4.7 192 4.9 102200 91
2002-12-17 08:29:02 51°18.116 2°50.837 4.4 198 4.9 102200 91
2002-12-17 08:29:06 51°18.126 2°50.817 5 193 4.9 102190 91
2002-12-17 08:29:12 51°18.139 2°50.789 4.3 198 4.9 102190 91
2002-12-17 08:29:17 51°18.151 2°50.765 4.5 190 4.9 102200 91
2002-12-17 08:29:22 51°18.162 2°50.741 4.5 193 4.9 102200 91
2002-12-17 08:29:27 51°18.174 2°50.717 4.4 193 4.9 102200 91
2002-12-17 08:29:30 51°18.181 2°50.703 4.3 192 4.9 102200 91
2002-12-17 08:29:37 51°18.197 2°50.67 4 185 4.9 102180 91
2002-12-17 08:29:41 51°18.207 2°50.651 4.1 187 4.9 102180 91
2002-12-17 08:29:47 51°18.221 2°50.622 3.9 187 4.9 102190 91
2002-12-17 08:29:51 51°18.231 2°50.604 5 199 4.9 102190 91
2002-12-17 08:29:57 51°18.246 2°50.576 5.4 203 4.9 102200 91
2002-12-17 08:30:01 51°18.256 2°50.557 4.1 193 4.9 102200 91
2002-12-17 08:30:05 51°18.266 2°50.537 4.3 191 4.9 102190 91
2002-12-17 08:30:11 51°18.28 2°50.51 4.2 194 4.9 102190 91
2002-12-17 08:30:17 51°18.295 2°50.482 4.3 196 4.9 102190 91
2002-12-17 08:30:21 51°18.305 2°50.463 3.7 191 4.9 102190 91
2002-12-17 08:30:26 51°18.317 2°50.439 4.2 195 4.9 102190 91
2002-12-17 08:30:31 51°18.329 2°50.416 4.3 200 4.9 102190 91
2002-12-17 08:30:37 51°18.344 2°50.387 5.3 201 4.9 102190 91
2002-12-17 08:30:41 51°18.354 2°50.368 4.6 199 4.9 102190 91
2002-12-17 08:30:46 51°18.365 2°50.343 3.6 193 4.9 102200 91
2002-12-17 08:30:51 51°18.377 2°50.319 4 197 4.9 102200 91
2002-12-17 08:30:57 51°18.392 2°50.291 4.3 199 4.9 102190 91
2002-12-17 08:31:02 51°18.403 2°50.267 4.2 196 4.9 102190 91
2002-12-17 08:31:07 51°18.414 2°50.242 3.9 192 4.9 102190 91
2002-12-17 08:31:10 51°18.421 2°50.227 4.9 204 4.9 102190 91
2002-12-17 08:31:17 51°18.437 2°50.193 4.8 196 4.9 102200 91
2002-12-17 08:31:21 51°18.446 2°50.173 4.4 193 4.9 102200 91
2002-12-17 08:31:27 51°18.459 2°50.142 3.9 194 4.9 102200 91
2002-12-17 08:31:31 51°18.468 2°50.122 3.5 195 4.9 102200 91
2002-12-17 08:31:37 51°18.481 2°50.091 3.1 199 4.9 102200 91
2002-12-17 08:31:42 51°18.491 2°50.066 4.4 194 4.9 102200 91
2002-12-17 08:31:46 51°18.499 2°50.045 4.3 205 4.9 102190 91
2002-12-17 08:31:52 51°18.512 2°50.014 4 204 4.9 102190 91
2002-12-17 08:31:57 51°18.522 2°49.989 3.7 204 4.9 102200 91
2002-12-17 08:32:02 51°18.532 2°49.963 3.7 201 4.9 102200 91
2002-12-17 08:32:06 51°18.54 2°49.942 4.3 199 4.9 102190 91
2002-12-17 08:32:10 51°18.548 2°49.922 4 201 4.9 102190 91
2002-12-17 08:32:17 51°18.562 2°49.886 3.7 205 4.9 102200 91
2002-12-17 08:32:21 51°18.57 2°49.865 3.9 206 4.9 102200 91
2002-12-17 08:32:27 51°18.583 2°49.835 4.3 208 4.9 102190 91
2002-12-17 08:32:31 51°18.591 2°49.814 4.3 195 4.9 102190 91
2002-12-17 08:32:37 51°18.603 2°49.784 4.8 203 4.9 102200 91
2002-12-17 08:32:41 51°18.611 2°49.763 4.3 202 4.9 102200 91
2002-12-17 08:32:47 51°18.623 2°49.733 4.3 198 4.9 102200 91
2002-12-17 08:32:51 51°18.631 2°49.712 3.7 205 4.9 102200 91
2002-12-17 08:32:57 51°18.643 2°49.682 4.5 205 4.9 102200 91
2002-12-17 08:33:02 51°18.653 2°49.656 3.8 202 4.9 102200 91
2002-12-17 08:33:06 51°18.661 2°49.636 3.6 201 4.9 102200 91
2002-12-17 08:33:12 51°18.673 2°49.606 3.3 203 4.9 102200 91
2002-12-17 08:33:17 51°18.683 2°49.581 4 204 4.9 102210 91
2002-12-17 08:33:22 51°18.694 2°49.556 3.6 206 4.9 102210 91
2002-12-17 08:33:27 51°18.704 2°49.531 3.9 207 4.9 102200 91
2002-12-17 08:33:30 51°18.71 2°49.515 4.4 201 4.9 102200 91
2002-12-17 08:33:37 51°18.724 2°49.48 4 211 4.9 102210 91
2002-12-17 08:33:41 51°18.732 2°49.46 4.3 200 4.9 102210 91
2002-12-17 08:33:47 51°18.745 2°49.43 3.7 203 4.9 102200 91
2002-12-17 08:33:51 51°18.753 2°49.41 3.6 193 4.9 102200 91
2002-12-17 08:33:57 51°18.765 2°49.38 3.8 205 4.9 102200 91
2002-12-17 08:34:01 51°18.773 2°49.36 3.6 193 4.9 102200 91
2002-12-17 08:34:05 51°18.782 2°49.34 3.9 207 4.9 102200 91
2002-12-17 08:34:11 51°18.794 2°49.31 3.9 199 4.9 102200 91
2002-12-17 08:34:17 51°18.807 2°49.279 4.4 210 4.9 102210 91
2002-12-17 08:34:21 51°18.815 2°49.259 4.9 207 4.9 102210 91
2002-12-17 08:34:26 51°18.826 2°49.234 4.3 209 4.9 102210 91
2002-12-17 08:34:31 51°18.836 2°49.209 4.1 208 4.9 102210 91
2002-12-17 08:34:37 51°18.849 2°49.179 4.3 204 4.9 102200 91
2002-12-17 08:34:41 51°18.857 2°49.159 3.8 203 4.9 102200 91
2002-12-17 08:34:46 51°18.867 2°49.134 3.9 190 4.9 102200 91
2002-12-17 08:34:51 51°18.878 2°49.109 3.6 191 4.9 102200 91
2002-12-17 08:34:57 51°18.89 2°49.078 4.1 205 4.9 102210 91
2002-12-17 08:35:02 51°18.9 2°49.053 4.3 203 4.9 102210 91
2002-12-17 08:35:06 51°18.909 2°49.032 4 204 4.9 102210 91
2002-12-17 08:35:10 51°18.917 2°49.012 4.4 213 4.9 102210 91
2002-12-17 08:35:17 51°18.932 2°48.976 4.8 216 4.9 102200 91
2002-12-17 08:35:21 51°18.94 2°48.955 4.8 205 4.9 102200 91
2002-12-17 08:35:25 51°18.948 2°48.935 4.6 208 4.9 102210 91
2002-12-17 08:35:32 51°18.963 2°48.9 4.4 205 4.9 102210 91
2002-12-17 08:35:37 51°18.973 2°48.873 4.3 206 4.9 102210 91
2002-12-17 08:35:41 51°18.982 2°48.853 3.8 206 4.9 102210 91
2002-12-17 08:35:45 51°18.99 2°48.832 4.9 205 4.9 102200 91
2002-12-17 08:35:51 51°19.003 2°48.801 4.2 201 4.9 102200 91
2002-12-17 08:35:57 51°19.016 2°48.771 4 214 4.9 102200 91
2002-12-17 08:36:02 51°19.027 2°48.745 4 207 4.9 102200 91
2002-12-17 08:36:06 51°19.035 2°48.725 4.9 205 4.9 102210 91
2002-12-17 08:36:12 51°19.047 2°48.694 4.3 200 4.9 102210 91
2002-12-17 08:36:17 51°19.058 2°48.668 4.8 208 4.9 102200 91
2002-12-17 08:36:21 51°19.067 2°48.647 4.7 205 4.9 102200 91
2002-12-17 08:36:26 51°19.077 2°48.621 4 209 5 102210 91
2002-12-17 08:36:32 51°19.09 2°48.591 4.1 208 5 102210 91
2002-12-17 08:36:37 51°19.1 2°48.564 4.9 214 5 102200 91
2002-12-17 08:36:41 51°19.108 2°48.544 5.1 205 5 102200 91
2002-12-17 08:36:47 51°19.121 2°48.513 4.2 200 4.9 102210 91
2002-12-17 08:36:51 51°19.129 2°48.492 4.3 199 4.9 102210 91
2002-12-17 08:36:57 51°19.142 2°48.46 3.5 201 4.9 102210 91
2002-12-17 08:37:01 51°19.15 2°48.44 4 209 4.9 102210 91
2002-12-17 08:37:06 51°19.161 2°48.414 4.5 214 4.9 102210 91
2002-12-17 08:37:12 51°19.173 2°48.383 4.6 205 4.9 102210 91
2002-12-17 08:37:17 51°19.183 2°48.357 4.9 204 4.9 102210 91
2002-12-17 08:37:22 51°19.193 2°48.331 4.7 199 4.9 102210 91
2002-12-17 08:37:26 51°19.202 2°48.31 4.7 203 5 102220 91
2002-12-17 08:37:31 51°19.212 2°48.284 4.4 201 5 102220 91
2002-12-17 08:37:37 51°19.225 2°48.252 4.1 206 5 102210 91
2002-12-17 08:37:41 51°19.234 2°48.231 4.2 206 5 102210 91
2002-12-17 08:37:46 51°19.244 2°48.205 5 206 5 102210 91
2002-12-17 08:37:51 51°19.255 2°48.179 4.8 208 5 102210 91
2002-12-17 08:37:57 51°19.268 2°48.148 4.3 205 4.9 102200 91
2002-12-17 08:38:01 51°19.277 2°48.127 4.3 205 4.9 102200 91
2002-12-17 08:38:06 51°19.287 2°48.101 4.6 204 4.9 102220 91
2002-12-17 08:38:11 51°19.298 2°48.074 4.3 211 4.9 102220 91
2002-12-17 08:38:17 51°19.311 2°48.044 4.2 204 5 102210 91
2002-12-17 08:38:21 51°19.319 2°48.023 4.5 205 5 102210 91
2002-12-17 08:38:26 51°19.33 2°47.997 4.9 202 5 102220 91
2002-12-17 08:38:31 51°19.341 2°47.97 4.8 203 5 102220 91
2002-12-17 08:38:37 51°19.354 2°47.939 4.8 207 5 102220 91
2002-12-17 08:38:41 51°19.362 2°47.917 4.5 207 5 102220 91
2002-12-17 08:38:46 51°19.373 2°47.892 4.4 209 5 102210 91
2002-12-17 08:38:51 51°19.383 2°47.865 5 203 5 102210 91
2002-12-17 08:38:57 51°19.396 2°47.833 5.5 198 5 102210 91
2002-12-17 08:39:02 51°19.406 2°47.807 5.2 209 5 102210 91
2002-12-17 08:39:07 51°19.417 2°47.78 5.5 206 5 102210 91
2002-12-17 08:39:10 51°19.423 2°47.764 3.9 204 5 102210 91
2002-12-17 08:39:17 51°19.437 2°47.728 4.6 209 5 102210 91
2002-12-17 08:39:21 51°19.445 2°47.706 5.2 215 5 102210 91
2002-12-17 08:39:27 51°19.458 2°47.675 4.9 205 5 102220 91
2002-12-17 08:39:31 51°19.466 2°47.654 4.6 209 5 102220 91
2002-12-17 08:39:37 51°19.479 2°47.623 5 212 5 102230 91
2002-12-17 08:39:42 51°19.489 2°47.597 4.9 210 5 102230 91
2002-12-17 08:39:46 51°19.498 2°47.576 5 201 5 102210 91
2002-12-17 08:39:52 51°19.511 2°47.544 4.5 205 5 102210 91
2002-12-17 08:39:57 51°19.521 2°47.517 5.6 206 5 102220 91
2002-12-17 08:40:02 51°19.531 2°47.49 5.6 206 5 102220 91
2002-12-17 08:40:05 51°19.538 2°47.474 4.6 204 5 102210 91
2002-12-17 08:40:12 51°19.552 2°47.437 4.4 206 5 102210 91
2002-12-17 08:40:17 51°19.563 2°47.411 4.3 201 5 102220 91
2002-12-17 08:40:22 51°19.573 2°47.384 4.1 197 5 102220 91
2002-12-17 08:40:27 51°19.584 2°47.357 4 211 5 102200 91
2002-12-17 08:40:31 51°19.592 2°47.336 4.4 206 5 102200 91
2002-12-17 08:40:37 51°19.605 2°47.303 4.7 217 5 102220 91
2002-12-17 08:40:42 51°19.615 2°47.278 4.9 212 5 102220 91
2002-12-17 08:40:46 51°19.625 2°47.256 5 202 5 102200 91
2002-12-17 08:40:50 51°19.634 2°47.234 4.5 206 5 102200 91
2002-12-17 08:40:57 51°19.649 2°47.197 5.1 208 5 102210 91
2002-12-17 08:41:01 51°19.657 2°47.176 5.2 215 5 102210 91
2002-12-17 08:41:05 51°19.666 2°47.154 4.6 214 5 102220 91
2002-12-17 08:41:12 51°19.68 2°47.117 5 218 5 102220 91
2002-12-17 08:41:17 51°19.691 2°47.09 5 216 5 102210 91
2002-12-17 08:41:22 51°19.701 2°47.063 5.6 210 5 102210 91
2002-12-17 08:41:26 51°19.71 2°47.042 5.1 214 5 102220 91
2002-12-17 08:41:32 51°19.723 2°47.01 5.1 206 5 102220 91
2002-12-17 08:41:37 51°19.734 2°46.984 5 209 5 102220 91
2002-12-17 08:41:41 51°19.743 2°46.962 4.3 205 5 102220 91
2002-12-17 08:41:45 51°19.751 2°46.941 5 214 5 102200 91
2002-12-17 08:41:51 51°19.764 2°46.909 5 208 5 102200 91
2002-12-17 08:41:57 51°19.777 2°46.877 5.4 204 5 102210 91
2002-12-17 08:42:01 51°19.786 2°46.855 5.4 204 5 102210 91
2002-12-17 08:42:06 51°19.797 2°46.828 5.8 217 5 102230 91
2002-12-17 08:42:12 51°19.809 2°46.796 5.4 208 5 102230 91
2002-12-17 08:42:17 51°19.82 2°46.769 5.8 204 5 102230 91
2002-12-17 08:42:22 51°19.83 2°46.743 5.2 208 5 102230 91
2002-12-17 08:42:26 51°19.839 2°46.722 4.6 214 5 102210 91
2002-12-17 08:42:32 51°19.85 2°46.689 4.6 204 5 102210 91
2002-12-17 08:42:37 51°19.86 2°46.662 4.6 206 5 102220 91
2002-12-17 08:42:41 51°19.868 2°46.639 4.2 212 5 102220 91
2002-12-17 08:42:46 51°19.879 2°46.613 4.9 207 5 102230 91
2002-12-17 08:42:51 51°19.888 2°46.586 5.4 207 5 102230 91
2002-12-17 08:42:57 51°19.9 2°46.553 5.7 211 5 102220 91
2002-12-17 08:43:02 51°19.911 2°46.526 5.6 198 5 102220 91
2002-12-17 08:43:06 51°19.918 2°46.504 4.6 206 5 102230 91
2002-12-17 08:43:12 51°19.93 2°46.472 4.3 218 5 102230 91
2002-12-17 08:43:17 51°19.94 2°46.445 4.5 210 5 102200 91
2002-12-17 08:43:21 51°19.948 2°46.423 5 205 5 102200 91
2002-12-17 08:43:25 51°19.956 2°46.402 4.4 199 5 102200 91
2002-12-17 08:43:31 51°19.967 2°46.37 4.8 213 5 102200 91
2002-12-17 08:43:37 51°19.978 2°46.337 4.4 213 5 102240 91
2002-12-17 08:43:42 51°19.987 2°46.309 4.9 212 5 102240 91
2002-12-17 08:43:46 51°19.994 2°46.286 4.7 213 5 102220 91
2002-12-17 08:43:50 51°20.001 2°46.263 4.8 218 5 102220 91
2002-12-17 08:43:57 51°20.014 2°46.226 4.7 213 5 102210 91
2002-12-17 08:44:02 51°20.022 2°46.198 4.4 216 5 102210 91
2002-12-17 08:44:06 51°20.029 2°46.175 4.7 206 5 102220 91
2002-12-17 08:44:11 51°20.038 2°46.148 4.4 215 5 102220 91
2002-12-17 08:44:17 51°20.049 2°46.114 5 203 5 102230 91
2002-12-17 08:44:22 51°20.058 2°46.086 4.7 210 5 102230 91
2002-12-17 08:44:26 51°20.065 2°46.065 4.2 193 5 102230 91
2002-12-17 08:44:32 51°20.076 2°46.032 3.8 196 5 102230 91
2002-12-17 08:44:37 51°20.085 2°46.005 5.1 203 5 102230 91
2002-12-17 08:44:42 51°20.094 2°45.977 4.4 212 5 102230 91
2002-12-17 08:44:46 51°20.1 2°45.954 3.8 202 5 102220 91
2002-12-17 08:44:50 51°20.107 2°45.933 4 192 5 102220 91
2002-12-17 08:44:57 51°20.12 2°45.894 3.5 207 5 102230 91
2002-12-17 08:45:01 51°20.128 2°45.872 3.8 200 5 102230 91
2002-12-17 08:45:05 51°20.135 2°45.85 4 220 5 102220 91
2002-12-17 08:45:10 51°20.143 2°45.821 4.7 215 5 102220 91
2002-12-17 08:45:17 51°20.154 2°45.782 3.8 209 5 102230 91
2002-12-17 08:45:21 51°20.16 2°45.759 3.8 214 5 102230 91
2002-12-17 08:45:27 51°20.169 2°45.725 4.3 206 5 102230 91
2002-12-17 08:45:31 51°20.175 2°45.702 3.9 211 5 102230 91
2002-12-17 08:45:37 51°20.183 2°45.668 4 210 5 102230 91
2002-12-17 08:45:42 51°20.189 2°45.638 4.2 211 5 102230 91
2002-12-17 08:45:46 51°20.194 2°45.615 4 212 5 102220 91
2002-12-17 08:45:52 51°20.203 2°45.58 4.8 215 5 102220 91
2002-12-17 08:45:57 51°20.209 2°45.551 4.8 208 5 102230 91
2002-12-17 08:46:02 51°20.216 2°45.522 4.3 212 5 102230 91
2002-12-17 08:46:06 51°20.221 2°45.498 4 213 5 102230 91
2002-12-17 08:46:12 51°20.226 2°45.463 4 211 5 102230 91
2002-12-17 08:46:17 51°20.232 2°45.433 3.4 221 5 102230 91
2002-12-17 08:46:22 51°20.238 2°45.404 3.4 214 5 102230 91
2002-12-17 08:46:26 51°20.243 2°45.381 4.2 219 5 102220 91
2002-12-17 08:46:32 51°20.25 2°45.346 3.8 208 5 102220 91
2002-12-17 08:46:37 51°20.257 2°45.318 3.8 221 5 102220 91
2002-12-17 08:46:42 51°20.263 2°45.289 3.5 209 5 102220 91
2002-12-17 08:46:47 51°20.27 2°45.261 3.1 223 5 102220 91
2002-12-17 08:46:50 51°20.274 2°45.243 3.3 213 5 102220 91
2002-12-17 08:46:57 51°20.283 2°45.202 3.3 237 5 102210 91
2002-12-17 08:47:01 51°20.286 2°45.179 3.3 219 5 102210 91
2002-12-17 08:47:06 51°20.294 2°45.15 3.8 229 5 102230 91
2002-12-17 08:47:11 51°20.298 2°45.121 4.2 207 5 102230 91
2002-12-17 08:47:17 51°20.306 2°45.086 3.5 217 5 102220 91
2002-12-17 08:47:22 51°20.312 2°45.057 3.4 214 5 102220 91
2002-12-17 08:47:26 51°20.318 2°45.035 3.9 214 5 102240 91
2002-12-17 08:47:30 51°20.325 2°45.012 3.6 210 5 102240 91
2002-12-17 08:47:37 51°20.339 2°44.977 4.6 207 5 102220 91
2002-12-17 08:47:42 51°20.349 2°44.952 5.3 196 5 102220 91
2002-12-17 08:47:45 51°20.356 2°44.938 3.8 202 5 102230 91
2002-12-17 08:47:51 51°20.369 2°44.907 3.6 198 5 102230 91
2002-12-17 08:47:57 51°20.381 2°44.877 4.2 197 5.1 102230 91
2002-12-17 08:48:01 51°20.388 2°44.857 3.9 187 5.1 102230 91
2002-12-17 08:48:06 51°20.398 2°44.833 3 201 5 102210 91
2002-12-17 08:48:11 51°20.406 2°44.81 2.7 186 5 102210 91
2002-12-17 08:48:17 51°20.416 2°44.785 2.4 183 5 102230 91
2002-12-17 08:48:21 51°20.423 2°44.769 2.4 188 5 102230 91
2002-12-17 08:48:27 51°20.431 2°44.747 2.3 179 5 102200 91
2002-12-17 08:48:31 51°20.437 2°44.733 2.8 162 5 102200 91
2002-12-17 08:48:37 51°20.445 2°44.713 2.4 147 5 102230 91
2002-12-17 08:48:42 51°20.451 2°44.697 2 157 5 102230 91
2002-12-17 08:48:46 51°20.455 2°44.685 2.2 135 5 102230 91
2002-12-17 08:48:52 51°20.462 2°44.668 1.5 132 5 102230 91
2002-12-17 08:48:57 51°20.466 2°44.655 1.5 116 5 102230 91
2002-12-17 08:49:02 51°20.47 2°44.642 1.8 118 5 102230 91
2002-12-17 08:49:06 51°20.474 2°44.632 2.5 104 5 102220 91
2002-12-17 08:49:10 51°20.477 2°44.622 2 100 5 102220 91
2002-12-17 08:49:17 51°20.481 2°44.606 2.1 90 5 102220 91
2002-12-17 08:49:21 51°20.484 2°44.597 2.2 94 5 102220 91
2002-12-17 08:49:27 51°20.488 2°44.583 2.1 97 5 102210 91
2002-12-17 08:49:31 51°20.49 2°44.575 2.3 92 5 102210 91
2002-12-17 08:49:37 51°20.494 2°44.564 1.7 86 5 102220 91
2002-12-17 08:49:41 51°20.496 2°44.556 2.1 87 5 102220 91
2002-12-17 08:49:47 51°20.499 2°44.544 2.5 85 5 102230 91
2002-12-17 08:49:51 51°20.501 2°44.537 2.3 85 5 102230 91
2002-12-17 08:49:57 51°20.504 2°44.526 2.4 89 5 102230 91
2002-12-17 08:50:01 51°20.506 2°44.519 2.3 87 5 102230 91
2002-12-17 08:50:06 51°20.509 2°44.51 2.6 75 5 102220 91
2002-12-17 08:50:12 51°20.512 2°44.501 2.5 71 5 102220 91
2002-12-17 08:50:17 51°20.514 2°44.492 2.8 81 5 102230 91
2002-12-17 08:50:22 51°20.516 2°44.484 2.6 85 5 102230 91
2002-12-17 08:50:26 51°20.517 2°44.476 2.1 63 5 102220 91
2002-12-17 08:50:32 51°20.52 2°44.466 2.2 88 5 102220 91
2002-12-17 08:50:37 51°20.522 2°44.457 2.1 78 5.1 102240 91
2002-12-17 08:50:42 51°20.524 2°44.448 1.5 60 5.1 102240 91
2002-12-17 08:50:47 51°20.526 2°44.44 1.9 58 5 102240 91
2002-12-17 08:50:51 51°20.528 2°44.432 1.6 319 5 102240 91
2002-12-17 08:50:57 51°20.53 2°44.421 1.3 48 5 102230 91
2002-12-17 08:51:01 51°20.531 2°44.414 1.6 66 5 102230 91
2002-12-17 08:51:06 51°20.532 2°44.404 1.6 60 5 102220 91
2002-12-17 08:51:12 51°20.534 2°44.393 1.6 61 5 102220 91
2002-12-17 08:51:17 51°20.535 2°44.384 1.6 70 5 102230 91
2002-12-17 08:51:21 51°20.537 2°44.376 1.3 48 5 102230 91
2002-12-17 08:51:26 51°20.538 2°44.367 1.5 317 5 102230 91
2002-12-17 08:51:31 51°20.538 2°44.358 1.4 71 5 102230 91
2002-12-17 08:51:37 51°20.539 2°44.346 2 52 5 102230 91
2002-12-17 08:51:41 51°20.54 2°44.339 1.8 32 5 102230 91
2002-12-17 08:51:45 51°20.541 2°44.331 1.1 9 5 102230 91
2002-12-17 08:51:51 51°20.542 2°44.32 1.1 62 5 102230 91
2002-12-17 08:51:57 51°20.543 2°44.308 1.2 32 5 102220 91
2002-12-17 08:52:02 51°20.544 2°44.298 0.9 24 5 102220 91
2002-12-17 08:52:06 51°20.545 2°44.291 1.5 326 5 102230 91
2002-12-17 08:52:11 51°20.546 2°44.281 1.7 52 5 102230 91
2002-12-17 08:52:17 51°20.547 2°44.269 1.5 66 5 102230 91
2002-12-17 08:52:22 51°20.548 2°44.259 1.5 29 5 102230 91
2002-12-17 08:52:26 51°20.548 2°44.252 1.7 319 5 102220 91
2002-12-17 08:52:30 51°20.549 2°44.244 2.2 56 5 102220 91
2002-12-17 08:52:37 51°20.55 2°44.229 2 58 5.1 102230 91
2002-12-17 08:52:41 51°20.551 2°44.221 1.9 49 5.1 102230 91
2002-12-17 08:52:45 51°20.552 2°44.211 1 357 5.1 102220 91
2002-12-17 08:52:51 51°20.553 2°44.195 1 127 5.1 102220 91
2002-12-17 08:52:57 51°20.556 2°44.176 1.1 121 5.1 102240 91
2002-12-17 08:53:02 51°20.56 2°44.159 1.8 130 5.1 102240 91
2002-12-17 08:53:06 51°20.564 2°44.145 1.4 177 5.1 102220 91
2002-12-17 08:53:12 51°20.573 2°44.123 2.4 196 5.1 102220 91
2002-12-17 08:53:17 51°20.582 2°44.104 2.6 189 5.1 102230 91
2002-12-17 08:53:21 51°20.591 2°44.09 3.4 192 5.1 102230 91
2002-12-17 08:53:26 51°20.604 2°44.073 4 190 5.2 102220 91
2002-12-17 08:53:31 51°20.618 2°44.059 5.6 188 5.2 102220 91
2002-12-17 08:53:37 51°20.637 2°44.045 6.1 196 5.2 102220 91
2002-12-17 08:53:41 51°20.65 2°44.038 5.8 196 5.2 102220 91
2002-12-17 08:53:47 51°20.671 2°44.031 7.4 196 5.2 102220 91
2002-12-17 08:53:51 51°20.685 2°44.027 8.1 197 5.2 102220 91
2002-12-17 08:53:57 51°20.707 2°44.024 6.8 198 5.2 102220 91
2002-12-17 08:54:02 51°20.725 2°44.022 6.7 199 5.2 102220 91
2002-12-17 08:54:05 51°20.736 2°44.02 6.8 192 5.2 102220 91
2002-12-17 08:54:11 51°20.758 2°44.016 7.4 195 5.2 102220 91
2002-12-17 08:54:17 51°20.78 2°44.01 6.6 193 5.1 102200 91
2002-12-17 08:54:22 51°20.797 2°44.003 6.8 200 5.1 102200 91
2002-12-17 08:54:26 51°20.811 2°43.995 6 198 5.2 102210 91
2002-12-17 08:54:32 51°20.833 2°43.983 5.5 187 5.2 102210 91
2002-12-17 08:54:37 51°20.85 2°43.974 6.5 201 5.2 102210 91
2002-12-17 08:54:42 51°20.867 2°43.964 7 199 5.2 102210 91
2002-12-17 08:54:46 51°20.881 2°43.956 6.1 192 5.2 102220 91
2002-12-17 08:54:50 51°20.895 2°43.948 5.8 195 5.2 102220 91
2002-12-17 08:54:57 51°20.919 2°43.934 6.7 198 5.2 102220 91
2002-12-17 08:55:01 51°20.933 2°43.926 7 194 5.2 102220 91
2002-12-17 08:55:05 51°20.947 2°43.917 6.4 195 5.2 102230 91
2002-12-17 08:55:10 51°20.964 2°43.908 6.4 195 5.2 102230 91
2002-12-17 08:55:17 51°20.988 2°43.893 5.7 190 5.2 102230 91
2002-12-17 08:55:22 51°21.006 2°43.883 6.5 194 5.2 102230 91
2002-12-17 08:55:27 51°21.024 2°43.872 6.9 195 5.2 102220 91
2002-12-17 08:55:31 51°21.038 2°43.865 7 192 5.2 102220 91
2002-12-17 08:55:37 51°21.06 2°43.852 6 197 5.2 102220 91
2002-12-17 08:55:41 51°21.074 2°43.844 6.3 198 5.2 102220 91
2002-12-17 08:55:47 51°21.095 2°43.831 6.4 201 5.2 102220 91
2002-12-17 08:55:51 51°21.109 2°43.823 6.4 204 5.2 102220 91
2002-12-17 08:55:57 51°21.13 2°43.81 6.4 194 5.2 102220 91
2002-12-17 08:56:02 51°21.147 2°43.799 6.4 198 5.2 102220 91
2002-12-17 08:56:05 51°21.157 2°43.792 6.7 201 5.2 102220 91
2002-12-17 08:56:11 51°21.178 2°43.779 7.1 207 5.2 102220 91
2002-12-17 08:56:17 51°21.199 2°43.765 4.6 191 5.2 102230 91
2002-12-17 08:56:21 51°21.212 2°43.757 5.1 190 5.2 102230 91
2002-12-17 08:56:27 51°21.233 2°43.743 5.8 193 5.2 102230 91
2002-12-17 08:56:31 51°21.247 2°43.735 5.8 201 5.2 102230 91
2002-12-17 08:56:37 51°21.267 2°43.721 6.7 192 5.2 102230 91
2002-12-17 08:56:42 51°21.285 2°43.71 5.5 193 5.2 102230 91
2002-12-17 08:56:46 51°21.299 2°43.702 6.9 195 5.1 102230 90
2002-12-17 08:56:52 51°21.32 2°43.689 6.1 198 5.1 102230 90
2002-12-17 08:56:57 51°21.337 2°43.679 5.6 190 5.1 102230 90
2002-12-17 08:57:02 51°21.355 2°43.667 5.8 187 5.1 102230 90
2002-12-17 08:57:06 51°21.369 2°43.659 6.5 195 5.2 102230 90
2002-12-17 08:57:10 51°21.383 2°43.65 5.8 182 5.2 102230 90
2002-12-17 08:57:17 51°21.407 2°43.635 6 188 5.2 102230 90
2002-12-17 08:57:21 51°21.421 2°43.627 5.3 183 5.2 102230 90
2002-12-17 08:57:27 51°21.442 2°43.614 5.3 191 5.2 102220 90
2002-12-17 08:57:31 51°21.456 2°43.605 6.3 195 5.2 102220 90
2002-12-17 08:57:37 51°21.477 2°43.591 5.8 194 5.2 102220 90
2002-12-17 08:57:41 51°21.49 2°43.582 5.9 192 5.2 102220 90
2002-12-17 08:57:47 51°21.512 2°43.57 5.3 188 5.2 102220 90
2002-12-17 08:57:51 51°21.525 2°43.56 6.3 205 5.2 102220 90
2002-12-17 08:57:57 51°21.545 2°43.547 5.6 194 5.2 102230 90
2002-12-17 08:58:02 51°21.562 2°43.537 5.8 196 5.2 102230 90
2002-12-17 08:58:06 51°21.576 2°43.529 6.3 195 5.2 102220 90
2002-12-17 08:58:11 51°21.593 2°43.519 4.9 188 5.2 102220 90
2002-12-17 08:58:17 51°21.614 2°43.506 5.6 191 5.2 102230 90
2002-12-17 08:58:21 51°21.628 2°43.498 6.5 195 5.2 102230 90
2002-12-17 08:58:27 51°21.648 2°43.485 5.3 193 5.3 102230 90
2002-12-17 08:58:31 51°21.662 2°43.476 5.8 197 5.3 102230 90
2002-12-17 08:58:37 51°21.682 2°43.464 5.8 183 5.3 102230 90
2002-12-17 08:58:42 51°21.699 2°43.453 5.1 184 5.3 102230 90
2002-12-17 08:58:45 51°21.709 2°43.446 6.6 194 5.2 102220 90
2002-12-17 08:58:51 51°21.729 2°43.434 6.7 194 5.2 102220 90
2002-12-17 08:58:57 51°21.75 2°43.421 6.4 191 5.2 102230 90
2002-12-17 08:59:01 51°21.764 2°43.413 5.2 181 5.2 102230 90
2002-12-17 08:59:05 51°21.778 2°43.404 7.5 201 5.3 102220 90
2002-12-17 08:59:11 51°21.798 2°43.392 6.8 201 5.3 102220 90
2002-12-17 08:59:17 51°21.818 2°43.38 5.5 193 5.3 102220 90
2002-12-17 08:59:22 51°21.834 2°43.37 6.3 196 5.3 102220 90
2002-12-17 08:59:26 51°21.847 2°43.362 4.5 181 5.2 102220 90
2002-12-17 08:59:31 51°21.863 2°43.352 4.2 188 5.2 102220 90
2002-12-17 08:59:37 51°21.882 2°43.34 5.8 198 5.3 102220 90
2002-12-17 08:59:41 51°21.895 2°43.332 5.3 198 5.3 102220 90
2002-12-17 08:59:46 51°21.911 2°43.322 4.8 197 5.2 102230 90
2002-12-17 08:59:51 51°21.928 2°43.312 5.8 198 5.2 102230 90
2002-12-17 08:59:57 51°21.948 2°43.301 6.7 195 5.3 102230 90
2002-12-17 09:00:02 51°21.966 2°43.291 6.3 189 5.3 102230 90
2002-12-17 09:00:06 51°21.979 2°43.283 6.2 200 5.3 102220 90
2002-12-17 09:00:12 51°22 2°43.272 6.1 197 5.3 102220 90
2002-12-17 09:00:17 51°22.017 2°43.262 6.2 203 5.3 102230 90
2002-12-17 09:00:22 51°22.035 2°43.253 6.9 194 5.3 102230 90
2002-12-17 09:00:26 51°22.049 2°43.245 5.9 201 5.3 102220 90
2002-12-17 09:00:32 51°22.07 2°43.233 5 195 5.3 102220 90
2002-12-17 09:00:37 51°22.087 2°43.223 6.1 200 5.3 102230 90
2002-12-17 09:00:42 51°22.105 2°43.213 5.3 192 5.3 102230 90
2002-12-17 09:00:46 51°22.119 2°43.204 6.2 194 5.3 102220 90
2002-12-17 09:00:51 51°22.136 2°43.193 5.5 193 5.3 102220 90
2002-12-17 09:00:57 51°22.157 2°43.182 5.7 196 5.3 102230 90
2002-12-17 09:01:02 51°22.174 2°43.171 5.5 189 5.3 102230 90
2002-12-17 09:01:06 51°22.188 2°43.163 5.1 187 5.3 102220 90
2002-12-17 09:01:12 51°22.209 2°43.152 5.8 190 5.3 102220 90
2002-12-17 09:01:17 51°22.227 2°43.142 6.5 193 5.3 102230 90
2002-12-17 09:01:22 51°22.244 2°43.131 6.5 194 5.3 102230 90
2002-12-17 09:01:26 51°22.259 2°43.124 6.3 196 5.3 102220 90
2002-12-17 09:01:32 51°22.28 2°43.112 5.4 194 5.3 102220 90
2002-12-17 09:01:37 51°22.298 2°43.102 6.1 189 5.3 102230 90
2002-12-17 09:01:41 51°22.312 2°43.093 5.3 190 5.3 102230 90
2002-12-17 09:01:45 51°22.326 2°43.085 4.8 197 5.3 102230 90
2002-12-17 09:01:52 51°22.35 2°43.07 6.2 189 5.3 102230 90
2002-12-17 09:01:57 51°22.368 2°43.06 6.4 191 5.3 102230 90
2002-12-17 09:02:02 51°22.385 2°43.049 4.7 194 5.3 102230 90
2002-12-17 09:02:06 51°22.399 2°43.041 4.9 191 5.3 102230 90
2002-12-17 09:02:10 51°22.412 2°43.032 7.4 193 5.3 102230 90
2002-12-17 09:02:17 51°22.435 2°43.018 6.8 188 5.3 102220 90
2002-12-17 09:02:21 51°22.448 2°43.01 4.8 187 5.3 102220 90
2002-12-17 09:02:27 51°22.468 2°42.998 5.5 195 5.3 102240 90
2002-12-17 09:02:32 51°22.485 2°42.988 6.3 193 5.3 102240 90
2002-12-17 09:02:37 51°22.502 2°42.978 5.8 191 5.3 102220 90
2002-12-17 09:02:42 51°22.52 2°42.968 5.5 190 5.3 102220 90
2002-12-17 09:02:45 51°22.53 2°42.963 5.6 186 5.3 102230 90
2002-12-17 09:02:50 51°22.548 2°42.953 6.1 193 5.3 102230 90
2002-12-17 09:02:57 51°22.572 2°42.939 5.3 201 5.3 102220 90
2002-12-17 09:03:01 51°22.586 2°42.931 5.4 185 5.3 102220 90
2002-12-17 09:03:07 51°22.608 2°42.919 7.2 196 5.3 102230 90
2002-12-17 09:03:11 51°22.622 2°42.911 7.4 198 5.3 102230 90
2002-12-17 09:03:17 51°22.643 2°42.899 7.4 197 5.3 102230 90
2002-12-17 09:03:21 51°22.656 2°42.891 5.7 190 5.3 102230 90
2002-12-17 09:03:27 51°22.677 2°42.879 5.8 196 5.3 102220 90
2002-12-17 09:03:31 51°22.691 2°42.871 6.7 186 5.3 102220 90
2002-12-17 09:03:37 51°22.712 2°42.859 5.9 185 5.3 102230 90
2002-12-17 09:03:41 51°22.726 2°42.851 7.1 194 5.3 102230 90
2002-12-17 09:03:45 51°22.739 2°42.843 6.8 190 5.3 102240 90
2002-12-17 09:03:51 51°22.76 2°42.831 5.3 179 5.3 102240 90
2002-12-17 09:03:57 51°22.781 2°42.819 5.4 183 5.3 102210 90
2002-12-17 09:04:01 51°22.795 2°42.812 6.3 180 5.3 102210 90
2002-12-17 09:04:06 51°22.813 2°42.802 5 193 5.3 102220 90
2002-12-17 09:04:12 51°22.834 2°42.79 5.8 187 5.3 102220 90
2002-12-17 09:04:17 51°22.851 2°42.78 6.3 183 5.3 102230 90
2002-12-17 09:04:21 51°22.866 2°42.772 6.1 189 5.3 102230 90
2002-12-17 09:04:27 51°22.887 2°42.76 7.5 191 5.4 102230 90
2002-12-17 09:04:32 51°22.905 2°42.75 6.7 183 5.4 102230 90
2002-12-17 09:04:37 51°22.923 2°42.74 6.4 190 5.4 102220 90
2002-12-17 09:04:41 51°22.937 2°42.733 6.7 184 5.4 102220 90
2002-12-17 09:04:47 51°22.959 2°42.72 7 187 5.4 102230 90
2002-12-17 09:04:52 51°22.977 2°42.711 6.4 186 5.4 102230 90
2002-12-17 09:04:57 51°22.995 2°42.701 6.7 181 5.4 102220 90
2002-12-17 09:05:02 51°23.013 2°42.691 6.9 188 5.4 102220 90
2002-12-17 09:05:06 51°23.027 2°42.683 6.2 185 5.4 102220 90
2002-12-17 09:05:12 51°23.048 2°42.672 6.4 187 5.4 102220 90
2002-12-17 09:05:17 51°23.066 2°42.662 6.1 192 5.4 102220 90
2002-12-17 09:05:22 51°23.084 2°42.652 6.4 187 5.4 102220 90
2002-12-17 09:05:27 51°23.101 2°42.643 6.1 191 5.4 102220 90
2002-12-17 09:05:31 51°23.116 2°42.635 6.1 187 5.4 102220 90
2002-12-17 09:05:37 51°23.137 2°42.623 5.9 186 5.4 102230 90
2002-12-17 09:05:42 51°23.155 2°42.613 5.9 188 5.4 102230 90
2002-12-17 09:05:46 51°23.169 2°42.606 5.8 184 5.4 102230 90
2002-12-17 09:05:52 51°23.19 2°42.594 6.4 189 5.4 102230 90
2002-12-17 09:05:57 51°23.208 2°42.584 6.5 192 5.4 102230 90
2002-12-17 09:06:01 51°23.222 2°42.575 5.1 182 5.4 102230 90
2002-12-17 09:06:06 51°23.24 2°42.566 5.7 189 5.4 102230 90
2002-12-17 09:06:11 51°23.257 2°42.556 5.9 190 5.4 102230 90
2002-12-17 09:06:17 51°23.279 2°42.545 6.7 188 5.4 102230 90
2002-12-17 09:06:22 51°23.297 2°42.535 7.8 188 5.4 102230 90
2002-12-17 09:06:26 51°23.311 2°42.527 7.9 194 5.4 102240 90
2002-12-17 09:06:31 51°23.329 2°42.517 7.3 185 5.4 102240 90
2002-12-17 09:06:37 51°23.351 2°42.505 8.1 184 5.4 102230 90
2002-12-17 09:06:42 51°23.369 2°42.496 7.1 186 5.4 102230 90
2002-12-17 09:06:47 51°23.387 2°42.487 7.4 189 5.4 102230 90
2002-12-17 09:06:51 51°23.402 2°42.48 8.4 190 5.4 102230 90
2002-12-17 09:06:57 51°23.423 2°42.468 8.6 193 5.4 102230 90
2002-12-17 09:07:01 51°23.438 2°42.461 7.4 187 5.4 102230 90
2002-12-17 09:07:06 51°23.456 2°42.451 7.2 183 5.5 102230 90
2002-12-17 09:07:12 51°23.477 2°42.439 7.3 184 5.5 102230 90
2002-12-17 09:07:17 51°23.495 2°42.429 8.2 181 5.5 102230 90
2002-12-17 09:07:22 51°23.514 2°42.419 8.3 182 5.5 102230 90
2002-12-17 09:07:26 51°23.528 2°42.411 8.7 194 5.5 102220 89
2002-12-17 09:07:31 51°23.545 2°42.402 8.1 194 5.5 102220 89
2002-12-17 09:07:37 51°23.567 2°42.39 8.2 193 5.5 102230 89
2002-12-17 09:07:41 51°23.581 2°42.382 7.6 181 5.5 102230 89
2002-12-17 09:07:47 51°23.602 2°42.37 7.8 187 5.5 102230 89
2002-12-17 09:07:52 51°23.62 2°42.361 9.4 196 5.5 102230 89
2002-12-17 09:07:57 51°23.637 2°42.351 9.4 193 5.5 102220 89
2002-12-17 09:08:01 51°23.652 2°42.344 9.6 196 5.5 102220 89
2002-12-17 09:08:07 51°23.673 2°42.332 9.3 190 5.5 102240 89
2002-12-17 09:08:10 51°23.684 2°42.327 8.6 185 5.5 102240 89
2002-12-17 09:08:17 51°23.709 2°42.313 8.4 184 5.5 102220 89
2002-12-17 09:08:21 51°23.723 2°42.305 7.8 183 5.5 102220 89
2002-12-17 09:08:27 51°23.744 2°42.293 9.1 179 5.6 102230 89
2002-12-17 09:08:32 51°23.761 2°42.284 7.9 182 5.6 102230 89
2002-12-17 09:08:37 51°23.779 2°42.273 7.6 186 5.6 102220 89
2002-12-17 09:08:41 51°23.793 2°42.266 8.1 181 5.6 102220 89
2002-12-17 09:08:47 51°23.814 2°42.254 7.3 182 5.6 102230 89
2002-12-17 09:08:51 51°23.829 2°42.246 7.6 181 5.6 102230 89
2002-12-17 09:08:57 51°23.85 2°42.236 6.6 189 5.6 102220 89
2002-12-17 09:09:01 51°23.865 2°42.228 8.2 182 5.6 102220 89
2002-12-17 09:09:06 51°23.882 2°42.218 7.1 185 5.6 102220 89
2002-12-17 09:09:09 51°23.893 2°42.212 8.4 179 5.6 102220 89
2002-12-17 09:09:17 51°23.922 2°42.196 8 178 5.6 102220 89
2002-12-17 09:09:22 51°23.939 2°42.186 7.5 178 5.6 102220 89
2002-12-17 09:09:26 51°23.953 2°42.178 6.8 179 5.6 102220 89
2002-12-17 09:09:32 51°23.974 2°42.165 7.4 179 5.6 102220 89
2002-12-17 09:09:37 51°23.992 2°42.155 7.7 175 5.6 102240 89
2002-12-17 09:09:41 51°24.006 2°42.147 8.8 177 5.6 102240 89
2002-12-17 09:09:47 51°24.027 2°42.135 8.4 175 5.6 102220 89
2002-12-17 09:09:51 51°24.041 2°42.126 8.6 172 5.6 102220 89
2002-12-17 09:09:57 51°24.063 2°42.114 7.8 175 5.6 102220 89
2002-12-17 09:10:01 51°24.077 2°42.106 7.9 173 5.6 102220 89
2002-12-17 09:10:06 51°24.095 2°42.096 6.7 180 5.6 102220 89
2002-12-17 09:10:12 51°24.117 2°42.084 7.5 181 5.6 102220 89
2002-12-17 09:10:17 51°24.135 2°42.074 7 185 5.6 102220 89
2002-12-17 09:10:21 51°24.149 2°42.067 8.8 173 5.6 102220 89
2002-12-17 09:10:27 51°24.171 2°42.054 7.9 177 5.6 102220 89
2002-12-17 09:10:32 51°24.188 2°42.045 7.1 184 5.6 102220 89
2002-12-17 09:10:37 51°24.205 2°42.035 7.2 180 5.6 102220 89
2002-12-17 09:10:42 51°24.223 2°42.025 6.5 182 5.6 102220 89
2002-12-17 09:10:46 51°24.237 2°42.017 7.9 178 5.6 102210 89
2002-12-17 09:10:52 51°24.258 2°42.005 9.4 178 5.6 102210 89
2002-12-17 09:10:57 51°24.275 2°41.996 8.3 176 5.6 102240 89
2002-12-17 09:11:01 51°24.29 2°41.988 8.6 174 5.6 102240 89
2002-12-17 09:11:06 51°24.307 2°41.978 7.6 177 5.6 102220 89
2002-12-17 09:11:12 51°24.328 2°41.965 8.5 176 5.6 102220 89
2002-12-17 09:11:17 51°24.346 2°41.957 8.7 180 5.6 102230 89
2002-12-17 09:11:21 51°24.36 2°41.948 7.3 182 5.6 102230 89
2002-12-17 09:11:27 51°24.38 2°41.937 8.1 182 5.6 102230 89
2002-12-17 09:11:29 51°24.387 2°41.932 8.2 172 5.6 102230 89
2002-12-17 09:11:37 51°24.416 2°41.917 7.2 183 5.6 102230 89
2002-12-17 09:11:41 51°24.43 2°41.909 8.1 175 5.6 102230 89
2002-12-17 09:11:47 51°24.451 2°41.897 7.4 177 5.6 102220 89
2002-12-17 09:11:51 51°24.465 2°41.889 8.3 177 5.6 102220 89
2002-12-17 09:11:57 51°24.486 2°41.878 8.3 168 5.6 102220 89
2002-12-17 09:12:02 51°24.504 2°41.868 7.9 176 5.6 102220 89
2002-12-17 09:12:06 51°24.519 2°41.86 8.3 176 5.5 102230 89
2002-12-17 09:12:11 51°24.537 2°41.85 6.9 173 5.5 102230 89
2002-12-17 09:12:17 51°24.558 2°41.838 7.3 175 5.5 102230 89
2002-12-17 09:12:21 51°24.572 2°41.83 7.6 177 5.5 102230 89
2002-12-17 09:12:27 51°24.594 2°41.818 7.6 178 5.5 102220 89
2002-12-17 09:12:32 51°24.611 2°41.808 6.8 179 5.5 102220 89
2002-12-17 09:12:37 51°24.629 2°41.799 8.4 176 5.5 102240 89
2002-12-17 09:12:41 51°24.643 2°41.791 7.4 177 5.5 102240 89
2002-12-17 09:12:47 51°24.664 2°41.779 8 172 5.5 102210 89
2002-12-17 09:12:50 51°24.675 2°41.774 8.7 178 5.5 102210 89
2002-12-17 09:12:57 51°24.7 2°41.76 8.2 179 5.5 102220 89
2002-12-17 09:13:01 51°24.714 2°41.752 6.7 183 5.5 102220 89
2002-12-17 09:13:06 51°24.732 2°41.742 9.9 176 5.5 102230 89
2002-12-17 09:13:12 51°24.754 2°41.731 8 176 5.5 102230 89
2002-12-17 09:13:16 51°24.768 2°41.723 9.4 177 5.5 102230 89
2002-12-17 09:13:21 51°24.786 2°41.713 8.8 177 5.5 102230 89
2002-12-17 09:13:27 51°24.807 2°41.701 8.2 177 5.5 102220 89
2002-12-17 09:13:31 51°24.822 2°41.693 7.9 169 5.5 102220 89
2002-12-17 09:13:37 51°24.842 2°41.681 7.7 173 5.5 102230 88
2002-12-17 09:13:42 51°24.86 2°41.671 7.4 176 5.5 102230 88
2002-12-17 09:13:47 51°24.878 2°41.66 7.5 167 5.5 102230 88
2002-12-17 09:13:52 51°24.895 2°41.65 8.7 172 5.5 102230 88
2002-12-17 09:13:57 51°24.913 2°41.64 7.9 174 5.5 102240 89
2002-12-17 09:14:01 51°24.927 2°41.632 8.3 177 5.5 102240 89
2002-12-17 09:14:06 51°24.945 2°41.622 8.7 174 5.6 102230 89
2002-12-17 09:14:11 51°24.963 2°41.612 8 174 5.6 102230 89
2002-12-17 09:14:17 51°24.984 2°41.6 9.3 183 5.5 102220 89
2002-12-17 09:14:21 51°24.999 2°41.592 9.1 179 5.5 102220 89
2002-12-17 09:14:26 51°25.017 2°41.582 9.3 180 5.5 102220 89
2002-12-17 09:14:32 51°25.038 2°41.571 9.3 173 5.5 102220 89
2002-12-17 09:14:37 51°25.055 2°41.561 9.5 175 5.5 102240 89
2002-12-17 09:14:42 51°25.073 2°41.551 8.8 179 5.5 102240 89
2002-12-17 09:14:46 51°25.088 2°41.543 8.2 177 5.5 102220 88
2002-12-17 09:14:52 51°25.109 2°41.532 9 175 5.5 102220 88
2002-12-17 09:14:56 51°25.123 2°41.523 9.2 181 5.5 102220 88
2002-12-17 09:15:01 51°25.141 2°41.514 9.6 167 5.5 102220 88
2002-12-17 09:15:07 51°25.162 2°41.502 8.9 167 5.5 102240 88
2002-12-17 09:15:12 51°25.18 2°41.494 8.1 178 5.5 102240 88
2002-12-17 09:15:17 51°25.197 2°41.485 8.7 176 5.6 102220 88
2002-12-17 09:15:21 51°25.212 2°41.477 8.7 179 5.6 102220 88
2002-12-17 09:15:27 51°25.233 2°41.466 9.6 179 5.5 102220 88
2002-12-17 09:15:32 51°25.251 2°41.456 10 178 5.5 102220 88
2002-12-17 09:15:37 51°25.27 2°41.447 8.8 176 5.6 102230 88
2002-12-17 09:15:42 51°25.287 2°41.436 8.7 176 5.6 102230 88
2002-12-17 09:15:46 51°25.302 2°41.429 9.3 172 5.6 102220 88
2002-12-17 09:15:51 51°25.32 2°41.419 8.4 177 5.6 102220 88
2002-12-17 09:15:57 51°25.341 2°41.408 8 176 5.6 102220 88
2002-12-17 09:16:02 51°25.359 2°41.398 8.8 175 5.6 102220 88
2002-12-17 09:16:05 51°25.37 2°41.392 9 170 5.5 102230 88
2002-12-17 09:16:12 51°25.395 2°41.378 8.8 172 5.5 102230 88
2002-12-17 09:16:17 51°25.413 2°41.368 9.8 171 5.5 102230 88
2002-12-17 09:16:22 51°25.431 2°41.358 8.3 175 5.5 102230 88
2002-12-17 09:16:27 51°25.448 2°41.347 9.2 167 5.5 102220 88
2002-12-17 09:16:31 51°25.463 2°41.34 7.7 168 5.5 102220 88
2002-12-17 09:16:37 51°25.484 2°41.328 9.1 170 5.6 102240 88
2002-12-17 09:16:41 51°25.498 2°41.32 7.1 181 5.6 102240 88
2002-12-17 09:16:47 51°25.519 2°41.307 8.2 177 5.6 102230 88
2002-12-17 09:16:49 51°25.526 2°41.304 10.1 175 5.6 102230 88
2002-12-17 09:16:57 51°25.555 2°41.287 8.1 174 5.6 102240 88
2002-12-17 09:17:02 51°25.572 2°41.276 9.2 175 5.6 102240 88
2002-12-17 09:17:06 51°25.586 2°41.268 9.4 176 5.6 102240 88
2002-12-17 09:17:12 51°25.608 2°41.256 7.6 179 5.6 102240 88
2002-12-17 09:17:17 51°25.625 2°41.245 7.9 178 5.5 102220 88
2002-12-17 09:17:21 51°25.639 2°41.237 7.6 178 5.5 102220 88
2002-12-17 09:17:27 51°25.661 2°41.224 8.9 175 5.5 102230 88
2002-12-17 09:17:31 51°25.675 2°41.216 8.3 177 5.5 102230 88
2002-12-17 09:17:37 51°25.697 2°41.203 9.4 173 5.5 102240 88
2002-12-17 09:17:41 51°25.711 2°41.196 7.5 172 5.5 102240 88
2002-12-17 09:17:47 51°25.732 2°41.183 8.5 173 5.5 102230 87
2002-12-17 09:17:51 51°25.746 2°41.176 7.6 179 5.5 102230 87
2002-12-17 09:17:57 51°25.767 2°41.163 9.5 175 5.5 102240 88
2002-12-17 09:18:01 51°25.781 2°41.155 8.6 177 5.5 102240 88
2002-12-17 09:18:05 51°25.795 2°41.147 9.1 177 5.5 102230 88
2002-12-17 09:18:11 51°25.816 2°41.135 8.3 166 5.5 102230 88
2002-12-17 09:18:17 51°25.838 2°41.123 8.1 173 5.5 102250 88
2002-12-17 09:18:21 51°25.851 2°41.115 8.5 178 5.5 102250 88
2002-12-17 09:18:25 51°25.866 2°41.107 8.6 177 5.5 102240 87
2002-12-17 09:18:31 51°25.887 2°41.095 6.4 181 5.5 102240 87
2002-12-17 09:18:37 51°25.908 2°41.083 7.9 179 5.5 102240 87
2002-12-17 09:18:41 51°25.922 2°41.076 6.8 178 5.5 102240 87
2002-12-17 09:18:47 51°25.943 2°41.064 7.1 184 5.5 102230 88
2002-12-17 09:18:51 51°25.957 2°41.057 8.3 176 5.5 102230 88
2002-12-17 09:18:57 51°25.978 2°41.044 7.1 182 5.5 102230 88
2002-12-17 09:19:02 51°25.995 2°41.036 7.9 190 5.5 102230 88
2002-12-17 09:19:05 51°26.006 2°41.03 7.4 182 5.6 102230 88
2002-12-17 09:19:11 51°26.027 2°41.019 8.7 179 5.6 102230 88
2002-12-17 09:19:17 51°26.048 2°41.006 8.9 179 5.5 102230 88
2002-12-17 09:19:22 51°26.066 2°40.996 8.6 176 5.5 102230 88
2002-12-17 09:19:26 51°26.079 2°40.988 8.1 177 5.5 102240 87
2002-12-17 09:19:32 51°26.1 2°40.976 8.4 173 5.5 102240 87
2002-12-17 09:19:37 51°26.118 2°40.966 7.8 176 5.5 102230 87
2002-12-17 09:19:42 51°26.135 2°40.955 8.2 175 5.5 102230 87
2002-12-17 09:19:45 51°26.146 2°40.949 8.3 177 5.5 102240 87
2002-12-17 09:19:51 51°26.167 2°40.937 7.6 169 5.5 102240 87
2002-12-17 09:19:57 51°26.188 2°40.924 8.1 179 5.5 102240 87
2002-12-17 09:20:02 51°26.206 2°40.913 8.6 180 5.5 102240 87
2002-12-17 09:20:06 51°26.22 2°40.905 8.4 179 5.5 102230 87
2002-12-17 09:20:12 51°26.242 2°40.894 8.3 177 5.5 102230 87
2002-12-17 09:20:17 51°26.26 2°40.887 7.8 180 5.5 102240 87
2002-12-17 09:20:22 51°26.278 2°40.879 8.2 181 5.5 102240 87
2002-12-17 09:20:26 51°26.292 2°40.874 7.6 186 5.5 102240 87
2002-12-17 09:20:31 51°26.311 2°40.87 8.8 179 5.5 102240 87
2002-12-17 09:20:37 51°26.334 2°40.867 9.1 178 5.5 102230 87
2002-12-17 09:20:41 51°26.348 2°40.866 7.7 184 5.5 102230 87
2002-12-17 09:20:47 51°26.371 2°40.867 8.2 181 5.5 102240 87
2002-12-17 09:20:50 51°26.382 2°40.868 8.9 184 5.5 102240 87
2002-12-17 09:20:57 51°26.408 2°40.869 9.3 179 5.5 102240 87
2002-12-17 09:21:01 51°26.423 2°40.871 7.6 188 5.5 102240 87
2002-12-17 09:21:06 51°26.441 2°40.874 8.7 186 5.5 102220 87
2002-12-17 09:21:11 51°26.46 2°40.879 8 189 5.5 102220 87
2002-12-17 09:21:17 51°26.482 2°40.885 9.9 188 5.5 102230 88
2002-12-17 09:21:22 51°26.5 2°40.893 11.5 192 5.5 102230 88
2002-12-17 09:21:27 51°26.518 2°40.903 11.8 193 5.5 102240 88
2002-12-17 09:21:31 51°26.532 2°40.911 10.9 192 5.5 102240 88
2002-12-17 09:21:37 51°26.552 2°40.925 10.3 194 5.5 102230 88